Probability
0 0 0 0 0 0 0 0 0 0 0 0 0 0 0 0 0 0 0 0 0 0 0 0 0 0 0 0 0 0 0 0 0 0 0 0 0 0 0 0 0 0 0 0
0 0 0 0 0 0 0 0 0 0 0 0 0 0 0 0 0 0 0 0 0 0 0 0 0 0 0 0 0 0 0 0 0 0 0 0 0 0 0 0 0 0 0 0
0 0 0 0 0 0 0 0 0 0 0 0 0 0 0 0 0 0 0 0 0 0 0 0 0 0 0 0 0 0 0 0 0 0 0 0 0 0 0 0 0 0 0 0
0 0 0 0 0 0 0 0 0 0 0 0 0 0 0 0 0 0 0 0 0 0 0 0 0 0 0 0 0 0 0 0 0 0 0 0 0 0 0 0 0 0 0 0
0 0 0 0 0 0 0 0 0 0 0 0 0 0 0 0 0 0 0 0 0 0 0 0 0 0 0 0 0 0 0 0 0 0 0 0 0 0 0 0 0 0 0 0
0 0 0 0 0 0 0 0 0 0 0 0 0 0 0 0 0 0 0 0 0 0 0 0 0 0 0 0 0 0 0 0 0 0 0 0 0 0 0 0 0 0 0 0
0 0 0 0 0 0 0 0 0 0 0 0 0 0 0 0 0 0 0 0 0 0 0 0 0 0 0 0 0 0 0 0 0 0 0 0 0 0 0 0 0 0 0 0
0 0 0 0 0 0 0 0 0 0 0 0 0 0 0 0 0 0 0 0 0 0 0 0 0 0 0 0 0 0 0 0 0 0 0 0 0 0 0 0 0 0 0 0
0 0 0 0 0 0 0 0 0 0 0 0 0 0 0 0 0 0 0 0 0 0 0 0 0 0 0 0 0 0 0 0 0 0 0 0 0 0 0 0 0 0 0 0
0 0 0 0 0 0 0 0 0 0 0 0 0 0 0 0 0 0 0 0 0 0 0 0 0 0 0 0 0 0 0 0 0 0 0 0 0 0 0 0 0 0 0 0
0 0 0 0 0 0 0 0 0 0 0 0 0 0 0 0 0 0 0 0 0 0 0 0 0 0 0 0 0 0 0 0 0 0 0 0 0 0 0 0 0 0 0 0
0 0 0 0 0 0 0 0 0 0 0 0 0 0 0 0 0 0 0 0 0 0 0 0 0 0 0 0 0 0 0 0 0 0 0 0 0 0 0 0 0 0 0 0
0 0 0 0 0 0 0 0 0 0 0 0 0 0 0 0 0 0 0 0 0 0 0 0 0 0 0 0 0 0 0 0 0 0 0 0 0 0 0 0 0 0 0 0
0 0 0 0 0 0 0 0 0 0 0 0 0 0 0 0 0 0 0 0 0 0 0 0 0 0 0 0 0 0 0 0 0 0 0 0 0 0 0 0 0 0 0 0
0 0 0 0 0 0 0 0 0 0 0 0 0 0 0 0 0 0 0 0 0 0 0 0 0 0 0 0 0 0 0 0 0 0 0 0 0 0 0 0 0 0 0 0
0 0 0 0 0 0 0 0 0 0 0 0 0 0 0 0 0 0 0 0 0 0 0 0 0 0 0 0 0 0 0 0 0 0 0 0 0 0 0 0 0 0 0 0
0 0 0 0 0 0 0 0 0 0 0 0 0 0 0 0 0 0 0 0 0 0 0 0 0 0 0 0 0 0 0 0 0 0 0 0 0 0 0 0 0 0 0 0
0 0 0 0 0 0 0 0 0 0 0 0 0 0 0 0 0 0 0 0 0 0 0 0 0 0 0 0 0 0 0 0 0 0 0 0 0 0 0 0 0 0 0 0
0 0 0 0 0 0 0 0 0 0 0 0 0 0 0 0 0 0 0 0 0 0 0 0 0 0 0 0 0 0 0 0 0 0 0 0 0 0 0 0 0 0 0 0
0 0 0 0 0 0 0 0 0 0 0 0 0 0 0 0 0 0 0 0 0 0 0 0 0 0 0 0 0 0 0 0 0 0 0 0 0 0 0 0 0 0 0 0
0 0 0 0 0 0 0 0 0 0 0 0 0 0 0 0 0 0 0 0 0 0 0 0 0 0 0 0 0 0 0 0 0 0 0 0 0 0 0 0 0 0 0 0
0 0 0 0 0 0 0 0 0 0 0 0 0 0 0 0 0 0 0 0 0 0 0 0 0 0 0 0 0 0 0 0 0 0 0 0 0 0 0 0 0 0 0 0
0 0 0 0 0 0 0 0 0 0 0 0 0 0 0 0 0 0 0 0 0 0 0 0 0 0 0 0 0 0 0 0 0 0 0 0 0 0 0 0 0 0 0 0
0 0 0 0 0 0 0 0 0 0 0 0 0 0 0 0 0 0 0 0 0 0 0 0 0 0 0 0 0 0 0 0 0 0 0 0 0 0 0 0 0 0 0 0
0 0 0 0 0 0 0 0 0 0 0 0 0 0 0 0 0 0 0 0 0 0 0 0 0 0 0 0 0 0 0 0 0 0 0 0 0 0 0 0 0 0 0 0
0 0 0 0 0 0 0 0 0 0 0 0 0 0 0 0 0 0 0 0 0 0 0 0 0 0 0 0 0 0 0 0 0 0 0 0 0 0 0 0 0 0 0 0
0 0 0 0 0 0 0 0 0 0 0 0 0 0 0 0 0 0 0 0 0 0 0 0 0 0 0 0 0 0 0 0 0 0 0 0 0 0 0 0 0 0 0 0
Wind_Speed
5 3 3 6 8 10 10 10 10 9 9 9 6 4 3 2 1 1 1 1 1 1 1 1 1 2 2 2 2 3 3 3 3 3 2 2 2 3 3 3 3 3 3 3
3 3 3 5 8 11 11 9 9 6 9 6 3 2 2 2 3 2 2 2 1 1 1 2 2 2 2 2 2 2 3 3 2 2 2 2 3 3 2 3 3 3 3 3
4 2 1 8 10 11 7 7 8 11 10 3 2 3 4 4 4 4 3 3 2 3 3 3 3 3 3 2 2 2 2 2 2 2 2 3 3 2 3 3 3 3 3 3
2 2 9 7 3 7 7 5 6 5 4 4 4 3 2 3 4 4 3 3 3 2 2 2 2 2 2 2 2 2 2 2 3 3 3 3 2 3 3 3 3 3 3 4
4 5 7 5 2 4 6 5 4 6 5 2 1 2 2 1 2 3 3 3 2 2 2 1 1 2 2 1 2 2 3 3 3 3 3 3 4 4 3 3 3 4 3 4
4 5 7 4 1 2 4 3 1 3 4 3 3 1 4 2 1 1 1 1 1 1 1 1 1 2 2 2 3 4 5 4 4 4 4 4 5 4 3 3 4 4 4 5
5 5 6 3 1 3 5 4 1 2 3 3 3 4 2 1 1 0 0 0 0 1 0 1 1 2 2 3 5 5 3 3 3 3 4 4 4 3 3 3 3 3 4 4
3 4 6 1 3 4 3 0 1 1 1 2 1 0 0 0 0 0 1 1 0 0 1 2 1 2 2 4 4 3 2 3 3 3 3 3 3 3 3 3 3 4 4 4
5 5 1 1 2 1 1 1 0 1 0 2 1 0 0 0 0 0 0 1 1 0 1 2 1 2 3 4 3 2 2 3 3 3 3 3 4 4 3 3 3 4 4 4
1 2 1 1 1 1 1 0 0 0 1 2 1 0 1 1 1 1 1 1 1 1 2 3 3 2 3 3 2 2 3 3 3 3 3 3 3 4 4 4 4 4 5 5
2 2 2 2 1 0 1 1 2 1 1 1 1 1 1 1 2 2 2 2 1 2 3 4 4 3 4 3 2 2 3 3 3 3 4 3 4 4 5 6 6 6 5 5
4 4 2 2 2 1 1 1 1 1 2 1 1 1 1 1 2 2 2 2 2 3 4 5 4 5 4 3 3 3 3 3 3 3 3 3 3 4 6 8 10 12 11 9
3 2 1 2 2 1 0 1 1 0 0 0 1 0 1 1 2 2 3 3 4 4 5 5 5 5 5 3 3 4 4 4 3 3 3 3 3 3 4 5 7 9 10 11
1 0 1 2 2 2 1 1 1 1 1 0 1 1 1 2 2 3 4 5 4 4 4 4 5 6 5 4 3 4 4 5 4 4 4 4 4 4 4 4 4 4 6 9
2 0 2 2 1 1 1 1 1 2 2 2 1 2 2 2 4 4 5 4 4 4 5 4 5 6 5 4 4 4 4 3 3 3 3 4 4 4 4 4 4 4 3 4
2 1 1 1 1 1 1 1 1 2 2 2 3 3 3 3 4 5 4 3 3 5 5 5 6 6 4 4 4 4 4 6 5 3 3 3 3 4 4 4 4 4 4 4
1 2 2 2 2 2 2 2 3 3 3 3 3 3 3 3 4 5 5 4 4 6 6 6 6 5 4 4 4 4 3 4 6 4 4 4 4 4 4 4 5 5 5 6
1 1 2 2 2 3 3 3 3 3 3 3 3 3 3 4 5 6 6 5 5 5 6 5 5 5 4 4 4 3 3 3 3 4 4 4 4 4 4 5 5 5 4 5
3 2 3 2 2 2 3 3 3 3 3 3 3 4 4 5 5 6 5 5 5 6 6 4 7 5 4 5 5 3 3 4 4 4 4 6 6 4 4 5 5 5 4 4
3 3 3 3 3 2 3 4 4 4 4 3 3 4 5 5 5 5 5 5 5 5 5 6 5 4 4 5 6 3 4 4 5 4 4 4 5 5 5 5 5 5 5 5
4 4 4 4 4 4 4 4 3 4 5 4 4 5 6 6 5 4 4 6 5 4 5 7 4 4 4 5 6 3 4 4 4 4 5 5 5 5 5 5 5 5 5 4
4 4 4 4 4 5 4 4 3 4 5 4 5 5 5 6 5 5 5 5 5 8 5 4 4 6 7 7 3 3 4 4 4 4 4 4 4 5 5 5 5 5 4 4
4 4 4 4 5 5 5 4 4 4 4 5 5 5 5 5 4 4 5 4 4 8 6 4 7 9 10 4 3 3 4 4 4 4 4 4 4 4 5 5 5 4 4 4
4 5 5 4 3 4 5 5 4 4 4 5 5 5 5 4 4 3 4 7 9 9 5 6 10 10 8 3 3 3 4 4 4 4 4 4 4 4 4 4 4 4 4 4
5 4 4 4 4 4 5 5 4 4 4 4 4 5 4 3 4 4 4 5 8 8 5 6 9 9 5 3 3 4 4 4 4 4 4 4 4 4 4 4 4 4 4 4
4 4 4 4 4 4 3 3 3 3 4 4 4 3 3 3 4 4 4 4 5 7 5 4 4 5 3 3 4 4 4 4 5 4 4 4 4 4 4 4 5 4 4 4
4 3 3 3 3 3 3 3 3 4 4 4 5 4 4 4 4 4 4 4 4 4 4 4 3 3 3 3 4 4 3 3 4 4 4 4 4 4 4 4 4 3 3 3
Wind_Direction
249 246 197 214 212 196 201 203 206 225 225 245 248 249 263 254 226 182 208 195 198 199 205 204 197 185 173 174 166 162 161 180 209 212 200 198 204 209 205 201 207 205 205 215
264 234 225 243 229 213 218 216 226 241 254 248 238 228 235 216 198 207 229 229 225 219 210 212 212 205 190 190 183 162 171 198 206 194 193 199 206 202 199 208 212 205 210 215
248 247 279 250 218 202 203 204 194 221 235 197 211 218 224 219 204 208 218 223 220 218 221 227 223 206 201 201 179 166 187 202 198 192 201 211 206 197 209 217 213 214 221 221
201 161 230 243 200 189 195 212 205 217 227 205 212 230 243 220 203 212 219 222 230 230 236 242 228 212 194 174 176 190 205 214 208 196 208 210 201 212 223 220 218 226 228 229
186 217 261 279 229 170 182 232 212 211 223 209 131 59 315 253 204 204 217 226 228 225 226 225 220 198 170 191 198 207 221 224 220 208 211 212 217 225 228 221 229 232 232 230
184 199 230 248 263 215 140 243 261 195 210 187 127 168 256 268 285 253 255 242 229 220 190 207 231 179 175 211 215 224 228 227 220 213 214 220 224 229 232 223 232 233 240 237
206 220 252 273 295 119 166 234 232 193 201 173 183 208 227 302 316 171 190 305 76 123 190 234 223 181 211 228 234 236 232 232 227 219 221 226 229 231 227 229 234 239 246 250
185 210 249 284 113 163 208 190 126 134 152 150 173 190 333 13 352 64 37 0 46 67 294 285 227 189 227 248 250 244 231 233 235 228 227 226 217 229 224 220 230 242 248 259
190 213 268 137 162 221 133 97 83 145 168 141 145 207 260 289 318 288 294 307 309 232 294 303 275 209 238 261 253 238 240 245 246 242 234 222 215 223 229 221 226 238 239 250
212 271 311 314 316 351 63 91 352 123 113 123 149 259 301 302 312 306 294 289 289 297 294 297 295 276 259 265 248 228 248 255 248 239 242 233 224 217 220 224 227 234 237 243
233 272 352 347 314 290 21 42 50 50 70 136 154 300 283 285 293 298 295 292 280 269 275 283 290 285 280 266 236 244 254 254 251 243 237 239 237 230 227 229 224 228 233 231
221 221 195 258 299 322 34 357 3 32 24 38 122 234 309 294 288 293 295 294 292 281 277 282 286 285 283 268 238 236 257 256 249 245 241 238 245 268 251 245 253 250 248 246
231 262 219 267 313 330 335 322 338 359 225 337 341 260 260 280 288 286 289 284 274 273 277 283 286 284 282 267 243 238 251 256 252 246 243 240 238 244 271 277 259 255 255 256
282 35 339 299 302 328 336 335 35 36 13 279 278 294 283 289 296 294 285 278 274 276 279 279 281 282 281 268 253 252 254 255 254 247 245 244 243 245 245 255 269 270 259 257
330 249 230 274 324 345 348 16 27 337 326 322 317 302 291 283 284 284 283 286 284 282 281 280 279 282 284 268 259 257 255 252 250 248 248 248 247 248 248 248 254 264 269 262
339 356 327 302 300 322 339 327 296 288 289 289 292 283 275 270 276 285 290 288 280 281 282 280 277 281 283 272 266 264 258 260 263 256 252 252 247 246 247 248 251 252 253 253
359 339 332 317 309 308 298 276 264 272 278 277 278 286 292 296 297 297 296 290 274 272 274 273 276 282 279 268 259 260 260 262 264 263 253 252 250 248 248 248 249 251 253 250
300 288 285 271 274 288 295 295 285 278 274 276 287 293 294 292 290 291 294 298 294 287 276 269 274 282 277 269 261 256 255 257 256 255 257 257 258 254 251 251 251 253 260 258
359 346 336 323 302 285 286 292 291 287 286 285 285 284 280 278 278 283 290 294 291 289 286 280 291 290 277 273 279 253 252 256 260 260 259 263 265 258 253 252 252 252 254 255
352 342 336 330 325 309 296 295 295 293 288 281 280 284 286 285 283 285 286 279 266 264 279 289 291 281 276 274 282 262 254 255 259 260 259 257 258 258 255 254 253 253 252 252
329 327 327 321 314 308 298 295 294 293 295 288 276 278 283 288 289 286 288 289 284 279 285 294 292 282 280 279 283 267 260 262 263 261 258 259 261 260 258 257 257 256 254 254
312 310 309 308 305 303 301 297 288 288 292 289 282 279 284 289 291 285 266 264 281 298 301 283 279 284 290 293 276 268 266 265 266 264 262 262 263 265 265 263 261 260 257 255
296 293 296 297 295 293 298 295 288 284 284 285 285 282 278 278 281 285 291 286 286 298 300 282 289 296 300 299 280 276 275 273 271 269 268 267 266 266 267 266 264 261 258 257
294 295 294 295 295 295 295 295 295 289 283 283 281 278 279 287 288 268 266 292 302 304 297 292 300 303 307 301 284 279 276 276 275 273 271 270 268 267 267 267 266 262 258 257
292 292 292 296 295 288 287 297 302 299 297 292 289 285 279 268 274 288 291 290 299 307 302 302 306 308 309 293 286 283 280 275 275 277 271 271 271 271 271 270 269 267 262 259
289 287 282 278 278 287 294 299 300 302 304 304 304 299 295 291 286 289 293 293 295 305 306 300 300 305 302 294 290 288 286 289 291 286 279 276 273 272 272 273 274 273 268 263
293 289 292 298 294 289 288 289 291 296 298 297 300 304 305 305 303 302 301 301 303 305 302 299 298 298 298 296 295 295 293 292 291 288 286 282 278 275 274 272 273 272 271 268